Home > Weather > Bundi > Past weeks

Flag for India Past Weather in Bundi, Rajasthan, India — Yesterday and Last 2 Weeks

Now
90 °F

Broken clouds.


Feels Like: 98 °F
Forecast: 85 / 101 °F
Wind: 10 mph from North

Location: Jaipur / Sanganer

Current Time: Jun 27, 2016 at 4:54:44 PM

Latest Report: Jun 27, 2016 at 3:30 PM


Visibility: 2 mi

Pressure: 29.53 "Hg

Humidity: 59%

Dew Point: 73 °F

Location of BundiLocation

Past Weather in Bundi — Graph

°F

Bundi Temperature Yesterday

Maximum temperature yesterday: 102 °F (at 1:00 PM)
Minimum temperature yesterday: 84 °F (at 5:00 AM)
Average temperature yesterday: 93 °F

High & Low Weather Summary for the Past Weeks

 TemperatureHumidityPressure
High108 °F (Jun 17, 4:30 PM)89% (Jun 21, 9:00 PM)29.74 "Hg (Jun 21, 9:00 PM)
Low81 °F (Jun 21, 5:30 PM)19% (Jun 17, 5:00 PM)29.45 "Hg (Jun 15, 4:00 PM)
Average94 °F44%29.59 "Hg
* Reported Jun 12 4:00 PM — Jun 27 3:30 PM, Bundi, Weather by CustomWeather, © 2016

Note: Actual official high and low records may vary slightly from our data, if they occured in-between our weather recording intervals... More about our weather records

Advertising

Bundi Weather History for the Previous 24 Hours

Scroll right to see more
 ConditionsComfort  
Time TempWeatherWind HumidityBarometerVisibility
3:30 PM
Mon, Jun 27
90 °FBroken clouds.10 mph59%29.53 "Hg1 mi
2:30 PM88 °FLight rain. Broken clouds.14 mph59%29.56 "Hg1 mi
1:30 PM100 °FScattered clouds.7 mph40%29.53 "Hg2 mi
1:00 PM100 °FScattered clouds.6 mph40%29.56 "Hg3 mi
12:30 PM99 °FScattered clouds.9 mph42%29.59 "Hg3 mi
12:00 PM100 °FScattered clouds.6 mph40%29.59 "Hg3 mi
11:30 AM97 °FScattered clouds.8 mph44%29.59 "Hg3 mi
11:00 AM97 °FScattered clouds.8 mph44%29.62 "Hg3 mi
10:30 AM97 °FScattered clouds.8 mph44%29.59 "Hg3 mi
10:00 AM95 °FScattered clouds.5 mph50%29.62 "Hg3 mi
9:30 AM93 °FScattered clouds.2 mph53%29.62 "Hg2 mi
9:00 AM90 °FScattered clouds.2 mph55%29.62 "Hg2 mi
8:00 AM88 °FScattered clouds.5 mph62%29.59 "Hg2 mi
7:30 AM88 °FScattered clouds.3 mph62%29.59 "Hg2 mi
7:00 AM86 °FScattered clouds.1 mph66%29.59 "Hg2 mi
6:30 AM86 °FScattered clouds.No wind66%29.59 "Hg2 mi
6:00 AM86 °FPassing clouds.3 mph66%29.59 "Hg2 mi
5:30 AM86 °FPassing clouds.7 mph66%29.56 "Hg2 mi
5:00 AM86 °FPassing clouds.6 mph66%29.56 "Hg2 mi
4:30 AM86 °FPassing clouds.9 mph66%29.56 "Hg2 mi
4:00 AM86 °FPassing clouds.8 mph62%29.59 "Hg2 mi
3:00 AM88 °FPassing clouds.7 mph59%29.59 "Hg2 mi
2:00 AM88 °FPassing clouds.9 mph55%29.59 "Hg2 mi
1:00 AM90 °FPassing clouds.2 mph55%29.62 "Hg2 mi
12:00 AM90 °FPassing clouds.3 mph55%29.62 "Hg2 mi
11:30 PM
Sun, Jun 26
91 °FPassing clouds.2 mph49%29.62 "Hg2 mi
11:00 PM91 °FPassing clouds.7 mph52%29.62 "Hg2 mi
10:00 PM95 °FPassing clouds.1 mph47%29.59 "Hg2 mi
9:00 PM95 °FPassing clouds.2 mph50%29.59 "Hg2 mi
8:30 PM93 °FPassing clouds.No wind49%29.56 "Hg2 mi
8:00 PM93 °FPassing clouds.No wind49%29.53 "Hg2 mi
7:30 PM95 °FScattered clouds.No wind47%29.53 "Hg2 mi
7:00 PM97 °FScattered clouds.3 mph44%29.53 "Hg2 mi
6:30 PM99 °FScattered clouds.1 mph33%29.53 "Hg2 mi
6:00 PM99 °FScattered clouds.1 mph35%29.50 "Hg2 mi
5:30 PM99 °FPartly sunny.No wind39%29.50 "Hg2 mi
5:00 PM97 °FPartly sunny.No wind39%29.50 "Hg2 mi
4:30 PM95 °FPartly sunny.No wind41%29.53 "Hg2 mi
4:00 PM93 °FScattered clouds.7 mph44%29.56 "Hg2 mi
Weather by CustomWeather, © 2016

See weather overviewHow to use our weather pages